{"data":{"norad_id":65070,"epoch":"2026-09-19T10:48:12.450240Z","epoch_age_seconds":211557,"freshness":"STALE","line1":"1 65070U 25165Q   26262.45014410  .00023710  00000+0  73364-3 0  9992","line2":"2 65070  97.2863 333.6713 0000676 115.2090 244.9223 15.33480207 63961","mean_motion":15.33480207,"eccentricity":6.76e-5,"inclination_deg":97.2863,"raan_deg":333.6713,"arg_perigee_deg":115.209,"mean_anomaly_deg":244.9223,"bstar":0.00073364,"rev_number":6396,"period_min":93.904048674819,"perigee_km":464.97579952177,"apogee_km":465.90105091926,"semimajor_km":6843.5754252205,"source":"CELESTRAK","updated_at":"2026-09-21T09:00:35.500946Z"}}